�������l�o���
Date,Time,MP-1(��Sv/h),MP-2(��Sv/h),MP-3(��Sv/h),MP-4(��Sv/h),MP-5(��Sv/h),MP-6(��Sv/h),MP-7(��Sv/h),����,����(m/s),���J
2015/02/16,00:00,0.548,0.331,0.565,0.508,0.538,0.258,0.231,���k��,9.0,��
2015/02/16,00:10,0.547,0.333,0.565,0.510,0.537,0.257,0.230,�k��,9.9,��
2015/02/16,00:20,0.546,0.332,0.565,0.510,0.537,0.257,0.231,���k��,9.5,��
2015/02/16,00:30,0.547,0.332,0.566,0.509,0.539,0.258,0.231,���k��,12.5,��
2015/02/16,00:40,0.546,0.332,0.565,0.510,0.540,0.257,0.231,���k��,7.6,��
2015/02/16,00:50,0.546,0.332,0.566,0.510,0.538,0.257,0.231,���k��,10.0,��
2015/02/16,01:00,0.546,0.333,0.565,0.511,0.538,0.257,0.231,�k��,9.5,��
2015/02/16,01:10,0.547,0.332,0.565,0.512,0.537,0.258,0.232,���k��,9.0,��
2015/02/16,01:20,0.547,0.332,0.564,0.509,0.539,0.257,0.230,�k��,10.5,��
2015/02/16,01:30,0.547,0.331,0.565,0.510,0.539,0.257,0.231,���k��,11.0,��
2015/02/16,01:40,0.546,0.333,0.565,0.511,0.537,0.258,0.231,���k��,11.3,��
2015/02/16,01:50,0.548,0.332,0.564,0.511,0.537,0.256,0.231,���k��,13.2,��
2015/02/16,02:00,0.548,0.333,0.566,0.510,0.537,0.258,0.231,�k��,12.3,��
2015/02/16,02:10,0.546,0.333,0.566,0.511,0.537,0.257,0.231,�k��,10.5,��
2015/02/16,02:20,0.548,0.333,0.567,0.511,0.539,0.258,0.231,�k��,8.7,��
2015/02/16,02:30,0.548,0.333,0.564,0.510,0.540,0.257,0.231,�k��,8.0,��
2015/02/16,02:40,0.548,0.333,0.565,0.512,0.539,0.258,0.231,�k��,8.7,��
2015/02/16,02:50,0.550,0.333,0.566,0.511,0.537,0.257,0.231,�k��,9.8,��
2015/02/16,03:00,0.546,0.332,0.565,0.511,0.535,0.258,0.231,�k��,10.4,��
2015/02/16,03:10,0.546,0.332,0.567,0.509,0.540,0.259,0.230,�k��,11.1,��
2015/02/16,03:20,0.549,0.332,0.566,0.511,0.539,0.256,0.231,�k��,9.6,��
2015/02/16,03:30,0.547,0.332,0.565,0.510,0.539,0.257,0.231,�k��,9.5,��
2015/02/16,03:40,0.547,0.334,0.565,0.511,0.537,0.257,0.231,�k�k��,10.4,��
2015/02/16,03:50,0.547,0.333,0.566,0.513,0.536,0.258,0.230,�k��,9.0,��
2015/02/16,04:00,0.546,0.334,0.566,0.510,0.540,0.257,0.230,�k��,8.7,��
2015/02/16,04:10,0.547,0.333,0.566,0.511,0.539,0.259,0.230,�k�k��,6.7,��
2015/02/16,04:20,0.548,0.332,0.565,0.510,0.539,0.256,0.230,�k�k��,5.6,��
2015/02/16,04:30,0.546,0.333,0.564,0.512,0.537,0.256,0.231,�k��,3.0,��
2015/02/16,04:40,0.546,0.332,0.564,0.510,0.538,0.257,0.231,�k��,3.3,��
2015/02/16,04:50,0.547,0.333,0.566,0.511,0.538,0.257,0.231,�k�k��,3.1,��
2015/02/16,05:00,0.545,0.332,0.564,0.510,0.538,0.257,0.231,�k�k��,2.7,��
2015/02/16,05:10,0.545,0.332,0.563,0.511,0.539,0.258,0.231,�k��,4.2,��
2015/02/16,05:20,0.546,0.333,0.566,0.509,0.536,0.258,0.229,�k��,4.5,��
2015/02/16,05:30,0.547,0.331,0.565,0.510,0.536,0.257,0.231,�k��,4.9,��
2015/02/16,05:40,0.546,0.332,0.567,0.512,0.537,0.258,0.231,�k��,3.4,��
2015/02/16,05:50,0.547,0.331,0.565,0.513,0.537,0.255,0.231,��,1.4,��
2015/02/16,06:00,0.547,0.332,0.562,0.511,0.538,0.258,0.231,���쐼,1.3,��
2015/02/16,06:10,0.545,0.332,0.565,0.511,0.537,0.257,0.231,���쐼,2.2,��
2015/02/16,06:20,0.546,0.332,0.564,0.509,0.537,0.257,0.231,���k��,1.6,��
2015/02/16,06:30,0.547,0.332,0.565,0.511,0.537,0.256,0.230,�k��,2.8,��
2015/02/16,06:40,0.547,0.333,0.566,0.510,0.537,0.256,0.231,���k��,2.4,��
2015/02/16,06:50,0.546,0.333,0.565,0.510,0.538,0.257,0.231,���k��,4.9,��
2015/02/16,07:00,0.545,0.333,0.563,0.508,0.538,0.256,0.231,���k��,4.1,��
2015/02/16,07:10,0.545,0.332,0.563,0.510,0.538,0.258,0.231,��,5.0,��
2015/02/16,07:20,0.547,0.333,0.563,0.511,0.537,0.258,0.230,�k��,1.9,��
2015/02/16,07:30,0.546,0.331,0.567,0.511,0.536,0.256,0.230,�k�k��,1.6,��
2015/02/16,07:40,0.546,0.331,0.565,0.509,0.537,0.257,0.230,�k,1.0,��
2015/02/16,07:50,0.546,0.334,0.564,0.511,0.537,0.258,0.231,�k�k��,0.6,��
2015/02/16,08:00,0.546,0.333,0.563,0.509,0.538,0.257,0.231,��,0.5,��
2015/02/16,08:10,0.545,0.331,0.566,0.512,0.536,0.256,0.231,���쐼,0.9,��
2015/02/16,08:20,0.545,0.331,0.566,0.507,0.538,0.257,0.230,���k��,1.0,��
2015/02/16,08:30,0.545,0.332,0.563,0.508,0.539,0.255,0.230,���쐼,0.9,��
2015/02/16,08:40,0.547,0.332,0.565,0.511,0.538,0.256,0.230,�k�k��,1.7,��
2015/02/16,08:50,0.546,0.330,0.567,0.508,0.535,0.256,0.230,�k�k��,1.7,��
2015/02/16,09:00,0.547,0.330,0.565,0.508,0.536,0.256,0.231,���k��,2.0,��
2015/02/16,09:10,0.547,0.333,0.566,0.510,0.540,0.256,0.230,���k��,3.7,��
2015/02/16,09:20,0.548,0.331,0.565,0.509,0.536,0.256,0.230,�k��,4.0,��
2015/02/16,09:30,0.544,0.330,0.568,0.509,0.538,0.257,0.229,���k��,5.6,��
2015/02/16,09:40,0.545,0.333,0.564,0.510,0.539,0.257,0.228,�k��,4.5,��
2015/02/16,09:50,0.546,0.330,0.563,0.509,0.537,0.256,0.228,�k��,4.2,��
2015/02/16,10:00,0.543,0.330,0.566,0.511,0.537,0.256,0.229,�k��,3.8,��
2015/02/16,10:10,0.544,0.332,0.566,0.505,0.540,0.256,0.230,�k��,4.3,��
2015/02/16,10:20,0.545,0.331,0.564,0.510,0.538,0.257,0.228,���k��,4.3,��
2015/02/16,10:30,0.542,0.332,0.564,0.507,0.540,0.256,0.229,�k��,5.1,��
2015/02/16,10:40,0.547,0.331,0.567,0.510,0.541,0.256,0.227,���k��,5.9,��
2015/02/16,10:50,0.544,0.331,0.566,0.508,0.539,0.257,0.228,���k��,5.2,��
2015/02/16,11:00,0.549,0.332,0.564,0.512,0.543,0.257,0.228,��,5.3,��
2015/02/16,11:10,0.543,0.331,0.566,0.509,0.538,0.258,0.229,���k��,4.9,��
2015/02/16,11:20,0.547,0.333,0.563,0.512,0.543,0.256,0.229,���k��,6.0,��
2015/02/16,11:30,0.545,0.330,0.564,0.510,0.539,0.257,0.230,���k��,5.8,��
2015/02/16,11:40,0.548,0.332,0.563,0.513,0.543,0.257,0.231,��,5.8,��
2015/02/16,11:50,0.546,0.332,0.563,0.511,0.539,0.256,0.230,���k��,5.1,��
2015/02/16,12:00,0.545,0.333,0.567,0.513,0.541,0.258,0.232,��,6.2,��
2015/02/16,12:10,0.546,0.332,0.564,0.509,0.538,0.257,0.230,���k��,5.7,��
2015/02/16,12:20,0.545,0.331,0.569,0.514,0.543,0.257,0.233,���k��,4.8,��
2015/02/16,12:30,0.550,0.333,0.564,0.509,0.541,0.257,0.230,��,5.3,��
2015/02/16,12:40,0.544,0.332,0.566,0.514,0.541,0.256,0.231,���k��,6.2,��
2015/02/16,12:50,0.548,0.332,0.561,0.511,0.540,0.257,0.232,��,5.4,��
2015/02/16,13:00,0.547,0.332,0.565,0.513,0.541,0.258,0.230,��,8.8,��
2015/02/16,13:10,0.549,0.333,0.560,0.510,0.542,0.259,0.233,��,7.1,��
2015/02/16,13:20,0.549,0.333,0.565,0.515,0.542,0.257,0.231,��,6.4,��
2015/02/16,13:30,0.548,0.333,0.561,0.510,0.542,0.259,0.231,��,5.5,��
2015/02/16,13:40,0.549,0.334,0.568,0.513,0.540,0.258,0.231,���k��,5.0,��
2015/02/16,13:50,0.548,0.332,0.562,0.511,0.544,0.256,0.233,���k��,5.1,��
2015/02/16,14:00,0.549,0.333,0.566,0.512,0.541,0.257,0.230,��,8.9,��
2015/02/16,14:10,0.547,0.332,0.562,0.510,0.545,0.258,0.232,���k��,6.0,��
2015/02/16,14:20,0.546,0.333,0.567,0.511,0.540,0.258,0.231,���k��,8.0,��
2015/02/16,14:30,0.550,0.332,0.568,0.512,0.546,0.256,0.231,���k��,6.0,��
2015/02/16,14:40,0.547,0.332,0.567,0.515,0.539,0.258,0.232,�k��,4.2,��
2015/02/16,14:50,0.551,0.333,0.572,0.513,0.547,0.257,0.231,�k��,4.1,��
2015/02/16,15:00,0.548,0.331,0.568,0.517,0.543,0.257,0.232,���k��,5.6,��
2015/02/16,15:10,0.549,0.334,0.568,0.515,0.544,0.257,0.231,�k��,5.8,��
2015/02/16,15:20,0.550,0.334,0.570,0.512,0.542,0.258,0.232,��,5.0,��
2015/02/16,15:30,0.549,0.334,0.567,0.514,0.543,0.258,0.231,�k��,4.8,��
2015/02/16,15:40,0.547,0.334,0.568,0.515,0.544,0.257,0.232,�k��,5.9,��
2015/02/16,15:50,0.551,0.335,0.569,0.513,0.543,0.259,0.232,�k�k��,5.5,��
2015/02/16,16:00,0.549,0.333,0.565,0.515,0.544,0.257,0.232,�k��,5.1,��
2015/02/16,16:10,0.547,0.333,0.566,0.514,0.545,0.258,0.233,�k��,3.8,��
2015/02/16,16:20,0.551,0.335,0.568,0.512,0.542,0.257,0.233,�k,2.5,��
2015/02/16,16:30,0.550,0.334,0.565,0.514,0.543,0.256,0.233,�k,1.9,��
2015/02/16,16:40,0.550,0.335,0.567,0.512,0.544,0.257,0.231,�k,1.2,��
2015/02/16,16:50,0.551,0.335,0.568,0.512,0.543,0.257,0.233,�k,0.8,��
2015/02/16,17:00,0.552,0.333,0.567,0.514,0.543,0.258,0.232,�k,2.5,��
2015/02/16,17:10,0.549,0.333,0.566,0.514,0.544,0.257,0.233,�k,3.4,��
2015/02/16,17:20,0.549,0.332,0.571,0.513,0.543,0.257,0.232,�k,3.9,��
2015/02/16,17:30,0.551,0.333,0.567,0.514,0.543,0.257,0.232,�k�k��,4.2,��
2015/02/16,17:40,0.548,0.333,0.567,0.514,0.542,0.259,0.234,�k�k��,6.5,��
2015/02/16,17:50,0.549,0.331,0.568,0.515,0.541,0.258,0.232,�k�k��,8.3,��
2015/02/16,18:00,0.549,0.333,0.570,0.512,0.543,0.259,0.234,�k�k��,7.0,��
2015/02/16,18:10,0.549,0.334,0.569,0.514,0.540,0.258,0.232,�k,5.9,��
2015/02/16,18:20,0.549,0.334,0.568,0.513,0.542,0.258,0.233,�k�k��,5.6,��
2015/02/16,18:30,0.548,0.333,0.567,0.514,0.543,0.258,0.232,�k�k��,5.8,��
2015/02/16,18:40,0.550,0.333,0.571,0.512,0.541,0.258,0.233,�k�k��,5.1,��
2015/02/16,18:50,0.550,0.334,0.567,0.513,0.541,0.259,0.233,�k,3.8,��
2015/02/16,19:00,0.549,0.335,0.566,0.514,0.542,0.258,0.233,�k�k��,5.3,��
2015/02/16,19:10,0.548,0.334,0.567,0.513,0.544,0.258,0.232,�k�k��,4.9,��
2015/02/16,19:20,0.549,0.334,0.568,0.514,0.542,0.258,0.233,�k,4.2,��
2015/02/16,19:30,0.548,0.334,0.567,0.514,0.541,0.259,0.233,�k,4.2,��
2015/02/16,19:40,0.550,0.335,0.566,0.514,0.542,0.258,0.232,�k,2.8,��
2015/02/16,19:50,0.549,0.333,0.568,0.515,0.543,0.258,0.232,�k�k��,1.5,��
2015/02/16,20:00,0.549,0.334,0.567,0.513,0.541,0.259,0.232,�k�k��,1.2,��
2015/02/16,20:10,0.549,0.335,0.568,0.514,0.540,0.258,0.232,�k�k��,3.7,��
2015/02/16,20:20,0.548,0.335,0.566,0.514,0.539,0.258,0.233,�k�k��,4.8,��
2015/02/16,20:30,0.548,0.335,0.567,0.515,0.543,0.259,0.231,�k�k��,3.2,��
2015/02/16,20:40,0.549,0.332,0.568,0.513,0.541,0.258,0.232,�k�k��,2.6,��
2015/02/16,20:50,0.547,0.333,0.568,0.513,0.543,0.258,0.232,�k�k��,3.9,��
2015/02/16,21:00,0.548,0.334,0.568,0.514,0.540,0.259,0.233,�k�k��,5.2,��
2015/02/16,21:10,0.547,0.334,0.567,0.514,0.542,0.258,0.233,�k�k��,4.4,��
2015/02/16,21:20,0.547,0.333,0.569,0.513,0.543,0.257,0.231,�k�k��,5.1,��
2015/02/16,21:30,0.549,0.333,0.568,0.513,0.541,0.257,0.234,�k�k��,6.4,��
2015/02/16,21:40,0.547,0.334,0.569,0.514,0.541,0.258,0.232,�k�k��,5.3,��
2015/02/16,21:50,0.548,0.333,0.567,0.512,0.540,0.258,0.232,�k�k��,5.4,��
2015/02/16,22:00,0.548,0.333,0.567,0.514,0.539,0.258,0.231,�k,6.9,��
2015/02/16,22:10,0.548,0.333,0.567,0.515,0.544,0.259,0.234,�k,6.5,��
2015/02/16,22:20,0.548,0.333,0.568,0.515,0.543,0.258,0.233,�k,8.2,��
2015/02/16,22:30,0.548,0.334,0.565,0.512,0.539,0.258,0.231,�k,9.4,��
2015/02/16,22:40,0.549,0.334,0.568,0.514,0.541,0.258,0.233,�k,8.5,��
2015/02/16,22:50,0.549,0.334,0.567,0.514,0.541,0.258,0.234,�k�k��,7.8,��
2015/02/16,23:00,0.546,0.334,0.567,0.514,0.544,0.258,0.232,�k�k��,6.9,��
2015/02/16,23:10,0.547,0.333,0.568,0.515,0.544,0.258,0.233,�k�k��,6.7,��
2015/02/16,23:20,0.548,0.332,0.568,0.514,0.541,0.258,0.231,�k�k��,4.4,��
2015/02/16,23:30,0.549,0.333,0.567,0.514,0.541,0.258,0.233,�k,3.4,��
2015/02/16,23:40,0.549,0.334,0.568,0.515,0.541,0.259,0.232,�k,3.0,��
2015/02/16,23:50,0.548,0.334,0.568,0.515,0.541,0.258,0.233,�k�k��,3.1,��
